Regional Weather Roundup
Issued by NWS

Home | Current Version | Previous Version | Text Only | Print | Product List | Glossary Off
Versions: 1 2 3 4 5 6 7 8 9 10 11 12 13 14 15 16 17 18 19 20 21 22 23 24 25 26 27 28 29 30 31 32 33 34 35 36 37 38 39 40 41 42 43 44 45 46 47 48 49 50

000
ASUS45 KBOU 270807
RWRCO

WEATHER ROUNDUP FOR COLORADO
NATIONAL WEATHER SERVICE DENVER/BOULDER CO
200 AM MDT WED AUG 27 2014

NOTE: "FAIR" INDICATES FEW OR NO CLOUDS BELOW 12000 FEET WITH NO
SIGNIFICANT WEATHER AND/OR OBSTRUCTIONS TO VISIBILITY.

COZ001>005-013-030-031-270900-
...NORTHWEST COLORADO...

CITY           SKY/WX    TMP DP  RH WIND       PRES   REMARKS
CRAIG          CLOUDY    56  50  80 W12       30.26S
HAYDEN         CLOUDY    55  46  71 CALM      30.27S
MEEKER         RAIN      55  51  86 W9        30.30S
MOUNT WERNER   NOT AVBL
STEAMBOAT SPGS CLOUDY    52  49  88 CALM      30.28F
WALDEN         CLOUDY    50  43  76 SE3       30.34F
$$

COZ006>008-011-270900-
...WEST CENTRAL VALLEYS...

CITY           SKY/WX    TMP DP  RH WIND       PRES   REMARKS
GRAND JUNCTION CLOUDY    57  56  96 SE8       30.23S
MONTROSE       CLOUDY    57  54  89 NW5       30.30R
EAGLE          CLOUDY    55  54  94 CALM      30.30F
RIFLE          RAIN      56  54  93 NW3       30.27S FOG
DELTA          RAIN      58  56  92 N3        30.26F
NUCLA          CLOUDY    55  52  88 CALM      30.31F
$$

COZ017>023-064>068-270900-
...SOUTHWEST COLORADO...

CITY           SKY/WX    TMP DP  RH WIND       PRES   REMARKS
DURANGO        CLOUDY    54  52  93 CALM      30.31S
CORTEZ         CLEAR     51  51 100 CALM      30.28S
PAGOSA SPRINGS CLOUDY    54  54 100 CALM      30.37F
TELLURIDE      CLOUDY    48  45  87 CALM      30.43S
WOLF CREEK PAS FOG       37  37 100 SW8       30.57F VSB 1/4
$$

COZ009-010-012-014-032>034-037-058>063-270900-
...CENTRAL COLORADO...

CITY           SKY/WX    TMP DP  RH WIND       PRES   REMARKS
ASPEN          CLOUDY    52  50  93 CALM      30.33F
BUENA VISTA    LGT RAIN  52  49  89 NW6       30.36F
COPPER MTN     CLOUDY    45  37  76 S6        30.56F
BERTHOUD PASS  CLOUDY    36  36 100 E10       30.61F
COTTONWOOD PAS RAIN      50  46  87 CALM      30.46F
GUNNISON       CLOUDY    52  46  82 SW12      30.39S
KREMMLING      DRIZZLE   52  46  82 CALM      30.32F
LEADVILLE      LGT RAIN  45  44  97 SW3       30.44F
MONARCH PASS   LGT RAIN  41  41 100 S5        30.68S VSB 1/4
SALIDA         CLOUDY    56  53  92 CALM      30.41F
SUNLIGHT       LGT RAIN  45  43  93 CALM      30.51F
WILKERSON PASS NOT AVBL
$$

COZ069>075-270900-
...SAN LUIS VALLEY/SANGRE DE CRISTO MOUNTAINS...

CITY           SKY/WX    TMP DP  RH WIND       PRES   REMARKS
ALAMOSA        CLOUDY    53  51  93 SW3       30.35R
LA VETA PASS   NOT AVBL
SAGUACHE       CLOUDY    55  50  82 N5        30.36F
$$

COZ035-036-038>040-270900-
...NORTHERN COLORADO FRONT RANGE...

CITY           SKY/WX    TMP DP  RH WIND       PRES   REMARKS
DENVER INTL AP CLOUDY    62  55  77 S14       30.20F
DMNS CITY PARK   N/A     61  56  83 S6        30.19F
AURORA         MOCLDY    60  56  88 S12       30.21F
FRONT RANGE AP LGT RAIN  63  59  88 S9        30.20F
ERIE MUNI ARPT CLOUDY    64  51  64 SW5       30.18S
BOULDER MUN AP CLOUDY    63  55  77 CALM      30.18S
CENTENNIAL     LGT RAIN  59  55  87 S13       30.22F
BROOMFIELD     CLOUDY    63  52  67 S9        30.22S
FORT COLLINS   CLOUDY    61  55  82 CALM      30.19S
LONGMONT       CLOUDY    63  57  81 CALM      30.19F
$$

COZ041-046-047-076>085-087-088-270900-
...PIKES PEAK/PALMER DIVIDE AND SOUTHERN FOOTHILLS...

CITY           SKY/WX    TMP DP  RH WIND       PRES   REMARKS
COLO. SPRINGS  MOCLDY    60  54  80 NE3       30.26F
A. F. ACADEMY  PTCLDY    55  55  99 N5        30.27F
ELLICOTT       CLOUDY    59  55  87 N3        30.23F
FALCON         PTCLDY    55  53  95 CALM      30.30F
FORT CARSON    CLOUDY    60  54  81 NW6       30.23F
LIMON          MOCLDY    59  56  89 CALM      30.21F
MONUMENT HILL  MOCLDY    52  52 100 S3        30.29F
TRINIDAD       MOCLDY    62  56  80 W6        30.22F
$$

COZ042>045-048>051-090-091-270900-
...NORTHEAST COLORADO...

CITY           SKY/WX    TMP DP  RH WIND       PRES   REMARKS
GREELEY ARPT   CLOUDY    61  52  72 S5        30.16F
AKRON          MOCLDY    64  58  80 S7        30.17F
BURLINGTON     PTCLDY    63  61  93 S7        30.17F
WRAY             N/A     64  62  91 CALM      30.14F
STERLING       MOCLDY    68  66  94 SE7       30.13R
HOLYOKE        DRIZZLE   64  61  88 S3        30.14F
FORT MORGAN    MOCLDY    61  59  93 SW5       30.15F
$$

COZ086-089-092>099-270900-
...SOUTHEAST COLORADO...

CITY           SKY/WX    TMP DP  RH WIND       PRES   REMARKS
PUEBLO         MOCLDY    64  59  83 E3        30.17F
LA JUNTA       CLOUDY    65  63  93 E6        30.14F
LAMAR          CLOUDY    65  63  93 E7        30.12F
SPRINGFIELD      N/A     62  62 100 S13       30.18S
$$


USA.gov is the U.S. government's official web portal to all federal, state and local government web resources and services.